,

(GMT )
Le Puy

Weather History for LFHP - January, 2013

Change the Weather History Date:

Wednesday, January 9, 2013

  Actual Average Record
Temperature  
Mean Temperature 36 °F -  
Max Temperature 50 °F - - ()
Min Temperature 22 °F - - ()
Degree Days  
Heating Degree Days 29    
Moisture  
Dew Point 23 °F    
Average Humidity 71    
Maximum Humidity 86    
Minimum Humidity 37    
Precipitation  
Precipitation 0.00 in - - ()
Sea Level Pressure  
Sea Level Pressure 30.13 in    
Wind  
Wind Speed 2 mph ()    
Max Wind Speed 4 mph    
Max Gust Speed -    
Visibility 6.6 miles    
Events      
T = Trace of Precipitation, MM = Missing Value Source: Averaged Metar Reports

Daily Weather History Graph

Daily Weather History Graph

Search for Another Location

Airport or City:

Trip Planner

Search our weather history database for the weather conditions in past years. The results will help you decide how hot, cold, wet, or windy it might be!

Date:

Astronomy

Jan. 09, 2013 Rise Set
Actual Time 8:22 AM CET 5:22 PM CET
Civil Twilight 7:49 AM CET 5:55 PM CET
Nautical Twilight 7:12 AM CET 6:32 PM CET
Astronomical Twilight 6:36 AM CET 7:07 PM CET
Moon 5:45 AM CET (1/9) 3:07 PM CET (1/9)
Length of Visible Light 10h 06m
Length of Day
8h 59m
Waning Crescent, 8% of the Moon is Illuminated
Jan 9
Waning Crescent
Jan 11
New
Jan 19
First Quarter
Jan 27
Full
Feb 3
Last Quarter

Hourly Weather History & Observations

Time (CET) Temp. Windchill Dew Point Humidity Pressure Visibility Wind Dir Wind Speed Gust Speed Precip Events Conditions
12:00 AM 26.6 °F 22.6 °F 19.4 °F 74% 30.27 in 6.2 mi SW 3.5 mph - N/A   Unknown
12:30 AM 26.6 °F - 19.4 °F 74% 30.24 in 6.2 mi WSW 2.3 mph - N/A   Unknown
1:00 AM 26 °F - 20 °F 68%  in 12 mi SW 3.5 mph - -   Clear
1:00 AM 26.6 °F 22.6 °F 19.4 °F 74% 30.24 in 6.2 mi SW 3.5 mph - N/A   Unknown
1:30 AM 26.6 °F - 19.4 °F 74% 30.24 in 6.2 mi Variable 1.2 mph - N/A   Unknown
2:00 AM 24.8 °F - 21.2 °F 86% 30.21 in 6.2 mi Calm Calm - N/A   Unknown
2:30 AM 24.8 °F - 19.4 °F 80% 30.21 in 6.2 mi Calm Calm - N/A   Unknown
3:00 AM 24.8 °F 20.5 °F 19.4 °F 80% 30.24 in 6.2 mi WSW 3.5 mph - N/A   Unknown
3:30 AM 24.8 °F 20.5 °F 19.4 °F 80% 30.21 in 6.2 mi WSW 3.5 mph - N/A   Unknown
4:00 AM 23.0 °F - 17.6 °F 80% 30.21 in 6.2 mi Variable 1.2 mph - N/A   Unknown
4:30 AM 23.0 °F - 19.4 °F 86% 30.21 in 6.2 mi Calm Calm - N/A   Unknown
5:00 AM 23.0 °F - 17.6 °F 80% 30.21 in 6.2 mi Calm Calm - N/A   Unknown
5:30 AM 23.0 °F - 19.4 °F 86% 30.18 in 6.2 mi Calm Calm - N/A   Unknown
6:00 AM 23.0 °F - 19.4 °F 86% 30.18 in 6.2 mi West 1.2 mph - N/A   Unknown
6:30 AM 23.0 °F - 19.4 °F 86% 30.18 in 6.2 mi WNW 1.2 mph - N/A   Unknown
7:00 AM 24 °F - 19 °F 73%  in 12 mi SW 2.3 mph - -   Clear
7:00 AM 23.0 °F - 19.4 °F 86% 30.18 in 6.2 mi SW 2.3 mph - N/A   Unknown
7:30 AM 23.0 °F - 19.4 °F 86% 30.18 in 6.2 mi SSW 2.3 mph - N/A   Unknown
8:00 AM 23.0 °F - 19.4 °F 86% 30.18 in 6.2 mi WSW 2.3 mph - N/A   Unknown
8:30 AM 24.8 °F - 19.4 °F 80% 30.18 in 6.2 mi Calm Calm - N/A   Unknown
9:00 AM 24.8 °F - 19.4 °F 80% 30.18 in 6.2 mi Calm Calm - N/A   Unknown
9:30 AM 30.2 °F - 23.0 °F 75% 30.18 in 6.2 mi Calm Calm - N/A   Unknown
10:00 AM 33.8 °F - 23.0 °F 65% 30.18 in 6.2 mi Calm Calm - N/A   Unknown
10:30 AM 33.8 °F - 23.0 °F 65% 30.15 in 6.2 mi Calm Calm - N/A   Unknown
11:00 AM 35.6 °F - 24.8 °F 65% 30.15 in 6.2 mi Calm Calm - N/A   Unknown
11:30 AM 39.2 °F - 23.0 °F 52% 30.15 in 6.2 mi Calm Calm - N/A   Unknown
12:00 PM 41.0 °F - 24.8 °F 53% 30.15 in 6.2 mi Variable 2.3 mph - N/A   Unknown
12:30 PM 42.8 °F - 26.6 °F 53% 30.12 in 6.2 mi Variable 2.3 mph - N/A   Unknown
1:00 PM 44 °F - 26 °F 37%  in 12 mi East 2.3 mph - -   Clear
1:00 PM 44.6 °F - 26.6 °F 49% 30.12 in 6.2 mi Variable 2.3 mph - N/A   Unknown
1:30 PM 46.4 °F - 26.6 °F 46% 30.09 in 6.2 mi Calm Calm - N/A   Unknown
2:00 PM 48.2 °F - 28.4 °F 46% 30.09 in 6.2 mi Calm Calm - N/A   Unknown
2:30 PM 50.0 °F - 28.4 °F 43% 30.06 in 6.2 mi Calm Calm - N/A   Unknown
3:00 PM 50.0 °F - 26.6 °F 40% 30.06 in 6.2 mi Calm Calm - N/A   Unknown
3:30 PM 50.0 °F - 24.8 °F 37% 30.06 in 6.2 mi Calm Calm - N/A   Unknown
4:00 PM 50.0 °F - 28.4 °F 43% 30.06 in 6.2 mi Calm Calm - N/A   Unknown
4:30 PM 46.4 °F - 30.2 °F 53% 30.06 in 6.2 mi Calm Calm - N/A   Unknown
5:00 PM 42.8 °F - 30.2 °F 61% 30.06 in 6.2 mi Calm Calm - N/A   Unknown
5:30 PM 37.4 °F - 30.2 °F 75% 30.04 in 6.2 mi SSW 2.3 mph - N/A   Unknown
6:30 PM 33.8 °F - 28.4 °F 81% 30.06 in 6.2 mi SW 2.3 mph - N/A   Unknown
7:00 PM 33 °F - 27 °F 71%  in 11 mi SW 3.5 mph - -   Clear
7:00 PM 32.0 °F 28.7 °F 26.6 °F 80% 30.06 in 6.2 mi SW 3.5 mph - N/A   Unknown
7:30 PM 32.0 °F - 26.6 °F 80% 30.04 in 6.2 mi WSW 2.3 mph - N/A   Unknown
8:00 PM 32.0 °F - 26.6 °F 80% 30.04 in 6.2 mi WSW 2.3 mph - N/A   Unknown
8:30 PM 32.0 °F - 26.6 °F 80% 30.04 in 6.2 mi SW 2.3 mph - N/A   Unknown
9:00 PM 30.2 °F - 26.6 °F 86% 30.04 in 6.2 mi SW 2.3 mph - N/A   Unknown
9:30 PM 30.2 °F - 24.8 °F 80% 30.04 in 6.2 mi SW 2.3 mph - N/A   Unknown
10:00 PM 28.4 °F 24.6 °F 24.8 °F 86% 30.04 in 6.2 mi WSW 3.5 mph - N/A   Unknown
10:30 PM 30.2 °F - 26.6 °F 86% 30.04 in 6.2 mi SW 2.3 mph - N/A   Unknown
11:00 PM 30.2 °F - 24.8 °F 80% 30.04 in 6.2 mi Variable 1.2 mph - N/A   Unknown
11:30 PM 28.4 °F - 24.8 °F 86% 30.04 in 6.2 mi SSW 1.2 mph - N/A   Unknown